Powrót do katalogu

STARLINK-34998

AktywnyŁącznośćVLEO
NORAD 65474·PAYLOAD·🇺🇸 United States

Wystrzelony Sep 3, 2025 z Cape Canaveral Space Force Station

Loading…

Następne Przeloty (najbliższe 24 godziny)

TLE

ŚwieżeSource: CelesTrak SupGP

Epoka: Sep 14, 2026, 21:12 UTC

1 65474C 25195S   26257.88381944  .00002355  00000+0  75736-4 0  2578
2 65474  53.1596  99.1188 0001386  82.3660 291.5253 15.31696272    16

Śledź STARLINK-34998 w czasie rzeczywistym z AllMySat

Download on the App Store